Location: downtown San Diego
(32.7310°N, 117.1990°W)
Time: 22:49:03
(UTC-08:00)

ATLAS CENTAUR R/B - Visible Passes

Search period start: 16 November 2019 00:00
Search period end: 26 November 2019 00:00
Orbit: 456 x 692 km, 64.6° (Epoch: 31 October)

Date Brightness Start Highest point End Pass type
(mag) Time Alt. Az. Time Alt. Az. Time Alt. Az.
16 Nov 2.2 04:43:47 10° SSW 04:48:38 64° ESE 04:53:28 10° NE visible
17 Nov 1.6 04:46:38 10° SSW 04:51:34 81° WNW 04:56:27 10° NNE visible
18 Nov 4.5 03:15:44 15° ESE 03:15:59 15° ESE 03:18:47 10° ENE visible
18 Nov 1.9 04:52:06 27° WSW 04:54:32 51° WNW 04:59:17 10° NNE visible
19 Nov 4.3 03:20:54 18° ENE 03:20:54 18° ENE 03:22:40 10° ENE visible
19 Nov 2.4 04:57:13 33° WNW 04:57:32 33° WNW 05:01:57 10° N visible
20 Nov 4.5 03:25:24 14° NE 03:25:24 14° NE 03:26:05 10° NE visible
20 Nov 3.1 05:01:41 21° NW 05:01:41 21° NW 05:04:26 10° N visible
21 Nov 3.8 05:05:43 13° NNW 05:05:43 13° NNW 05:06:38 10° NNW visible
